Boonville, MO

12:48 AM CDT on May 25, 2017 (GMT -0500)
Viertel Memorial

Weather History for KVER - February, 2013

Change the Weather History Date:

Sunday, February 10, 2013

  Actual Average Record
Temperature  
Mean Temperature 50 °F -  
Max Temperature 61 °F 37 °F 67 °F (2017)
Min Temperature 38 °F 18 °F -12 °F (1979)
Degree Days  
Heating Degree Days 16    
Moisture  
Dew Point 36 °F    
Average Humidity 69    
Maximum Humidity 98    
Minimum Humidity 29    
Precipitation  
Precipitation 0.27 in - - ()
Sea Level Pressure  
Sea Level Pressure 29.65 in    
Wind  
Wind Speed 15 mph (SSW)    
Max Wind Speed 30 mph    
Max Gust Speed 39 mph    
Visibility 9 miles    
Events Rain , Thunderstorm    
Averages and records for this station are not official NWS values.
T = Trace of Precipitation, MM = Missing Value Source: NWS Daily Summary

Daily Weather History Graph

Daily Weather History Graph

Search for Another Location

Airport or City:

Trip Planner

Search our weather history database for the weather conditions in past years. The results will help you decide how hot, cold, wet, or windy it might be!

Date:

Astronomy

Feb. 10, 2013 Rise Set
Actual Time 7:07 AM CST 5:42 PM CST
Civil Twilight 6:40 AM CST 6:10 PM CST
Nautical Twilight 6:08 AM CST 6:41 PM CST
Astronomical Twilight 5:37 AM CST 7:12 PM CST
Moon 6:58 AM CST (2/10) 6:33 PM CST (2/10)
Length of Visible Light 11h 30m
Length of Day
10h 35m
New Moon, 0% of the Moon is Illuminated
Feb 10
New Moon
Feb 17
First Quarter
Feb 25
Full
Mar 4
Last Quarter
Mar 11
New

Hourly Weather History & Observations

Time (CST) Temp. Windchill Dew Point Humidity Pressure Visibility Wind Dir Wind Speed Gust Speed Precip Events Conditions
12:15 AM 38.3 °F 30.9 °F 36.5 °F 93% 29.88 in 10.0 mi SSE 11.5 mph - N/A Rain Rain
12:35 AM 38.3 °F 31.9 °F 36.5 °F 93% 29.87 in 10.0 mi SE 9.2 mph - N/A Rain Light Rain
12:55 AM 38.3 °F 30.9 °F 36.5 °F 93% 29.87 in 5.0 mi SSE 11.5 mph - N/A Rain Light Rain
1:15 AM 38.3 °F 30.1 °F 36.9 °F 95% 29.85 in 2.0 mi SE 13.8 mph 18.4 mph 0.06 in Rain Rain
1:35 AM 38.1 °F 30.2 °F 37.2 °F 97% 29.83 in 7.0 mi SE 12.7 mph 18.4 mph 0.07 in   Overcast
1:55 AM 38.3 °F 31.9 °F 37.4 °F 97% 29.84 in 7.0 mi SSE 9.2 mph - 0.07 in Rain Light Rain
2:15 AM 38.8 °F 31.2 °F 37.9 °F 97% 29.83 in 7.0 mi SSE 12.7 mph 19.6 mph N/A   Overcast
2:35 AM 39.6 °F 32.5 °F 38.5 °F 96% 29.82 in 7.0 mi SE 11.5 mph 19.6 mph N/A Rain Light Rain
2:55 AM 39.9 °F 33.4 °F 38.5 °F 95% 29.80 in 5.0 mi SSE 10.4 mph - N/A   Overcast
3:15 AM 39.9 °F 33.9 °F 38.8 °F 96% 29.79 in 7.0 mi SSE 9.2 mph - N/A   Overcast
3:35 AM 40.1 °F 33.6 °F 39.2 °F 97% 29.76 in 7.0 mi SE 10.4 mph - N/A   Overcast
3:55 AM 40.5 °F 33.2 °F 39.4 °F 96% 29.75 in 7.0 mi SE 12.7 mph - N/A   Overcast
4:15 AM 40.8 °F 33.7 °F 39.4 °F 95% 29.72 in 7.0 mi SE 12.7 mph - N/A   Overcast
4:35 AM 41.2 °F 34.5 °F 39.7 °F 95% 29.72 in 7.0 mi SE 11.5 mph 17.3 mph N/A   Overcast
4:55 AM 41.7 °F 34.4 °F 40.1 °F 94% 29.69 in 7.0 mi SE 13.8 mph 18.4 mph N/A   Overcast
5:15 AM 42.1 °F 34.5 °F 40.3 °F 93% 29.68 in 7.0 mi SE 15.0 mph 18.4 mph N/A   Overcast
5:35 AM 42.4 °F 35.0 °F 40.8 °F 94% 29.66 in 7.0 mi SE 15.0 mph 21.9 mph N/A Thunderstorm Overcast
5:55 AM 43.0 °F 35.1 °F 41.2 °F 93% 29.66 in 7.0 mi SSE 17.3 mph 24.2 mph N/A Rain , Thunderstorm Light Thunderstorms and Rain
6:15 AM 43.5 °F 35.8 °F 41.9 °F 94% 29.65 in 7.0 mi SSE 17.3 mph 26.5 mph N/A Rain , Thunderstorm Light Thunderstorms and Rain
6:35 AM 44.1 °F 36.8 °F 42.8 °F 95% 29.64 in 5.0 mi SE 16.1 mph 24.2 mph 0.02 in Rain Rain
6:55 AM 44.1 °F 36.5 °F 43.3 °F 97% 29.62 in 4.0 mi SE 17.3 mph 23.0 mph 0.06 in Rain Light Rain
7:15 AM 44.8 °F 39.0 °F 44.2 °F 98% 29.61 in 2.5 mi SSE 11.5 mph 21.9 mph 0.11 in Rain Rain
7:35 AM 45.5 °F 39.6 °F 45.0 °F 98% 29.60 in 7.0 mi SSE 12.7 mph 23.0 mph 0.13 in Rain Light Rain
7:55 AM 46.2 °F 41.7 °F 45.5 °F 97% 29.60 in 5.0 mi South 9.2 mph 17.3 mph 0.13 in Rain Light Rain
8:15 AM 46.9 °F - 46.0 °F 97% 29.60 in 5.0 mi South 12.7 mph 19.6 mph 0.01 in   Light Drizzle
8:35 AM 47.5 °F - 46.9 °F 98% 29.58 in 5.0 mi SSE 13.8 mph - 0.01 in Rain Light Rain
8:55 AM 48.4 °F - 47.8 °F 98% 29.57 in 10.0 mi SSE 18.4 mph 21.9 mph 0.01 in   Overcast
9:15 AM 49.3 °F - 48.4 °F 97% 29.56 in 10.0 mi SSE 13.8 mph - N/A   Overcast
9:35 AM 49.6 °F - 48.7 °F 97% 29.55 in 10.0 mi SSE 16.1 mph 20.7 mph N/A   Overcast
9:55 AM 50.5 °F - 49.5 °F 96% 29.55 in 10.0 mi South 15.0 mph 23.0 mph N/A   Overcast
10:15 AM 52.0 °F - 50.2 °F 94% 29.55 in 10.0 mi South 16.1 mph 25.3 mph N/A   Overcast
10:35 AM 53.1 °F - 50.5 °F 91% 29.55 in 10.0 mi South 17.3 mph 27.6 mph N/A   Overcast
10:55 AM 54.5 °F - 51.4 °F 89% 29.55 in 10.0 mi South 16.1 mph 24.2 mph N/A   Overcast
11:15 AM 55.9 °F - 51.8 °F 86% 29.54 in 10.0 mi South 17.3 mph 26.5 mph N/A   Overcast
11:35 AM 57.9 °F - 50.9 °F 77% 29.53 in 10.0 mi SSW 16.1 mph 26.5 mph N/A   Mostly Cloudy
11:55 AM 58.6 °F - 46.2 °F 63% 29.52 in 10.0 mi SSW 18.4 mph 31.1 mph N/A   Scattered Clouds
12:15 PM 59.7 °F - 44.6 °F 57% 29.51 in 10.0 mi SSW 21.9 mph 32.2 mph N/A   Clear
12:35 PM 60.1 °F - 43.3 °F 54% 29.50 in 10.0 mi SSW 18.4 mph 28.8 mph N/A   Clear
12:55 PM 61.2 °F - 40.8 °F 47% 29.49 in 10.0 mi SSW 15.0 mph 32.2 mph N/A   Scattered Clouds
1:15 PM 61.3 °F - 36.5 °F 40% 29.49 in 10.0 mi SSW 23.0 mph 32.2 mph N/A   Clear
1:35 PM 61.5 °F - 33.4 °F 35% 29.48 in 10.0 mi SSW 19.6 mph 29.9 mph N/A   Clear
1:55 PM 61.2 °F - 32.4 °F 34% 29.48 in 10.0 mi SW 20.7 mph 33.4 mph N/A   Clear
2:15 PM 61.0 °F - 31.1 °F 32% 29.48 in 10.0 mi SW 21.9 mph 33.4 mph N/A   Clear
2:35 PM 61.2 °F - 28.9 °F 30% 29.48 in 10.0 mi SSW 23.0 mph 34.5 mph N/A   Clear
2:55 PM 60.6 °F - 28.4 °F 29% 29.48 in 10.0 mi SW 20.7 mph 32.2 mph N/A   Clear
3:15 PM 59.9 °F - 29.7 °F 32% 29.49 in 10.0 mi SW 20.7 mph 36.8 mph N/A   Clear
3:35 PM 58.8 °F - 29.3 °F 33% 29.51 in 10.0 mi SW 20.7 mph 36.8 mph N/A   Clear
3:55 PM 57.9 °F - 30.2 °F 35% 29.53 in 10.0 mi SW 29.9 mph 39.1 mph N/A   Clear
4:15 PM 56.8 °F - 30.2 °F 36% 29.54 in 10.0 mi WSW 24.2 mph 35.7 mph N/A   Clear
4:35 PM 56.3 °F - 30.2 °F 37% 29.55 in 10.0 mi WSW 15.0 mph 24.2 mph N/A   Clear
4:55 PM 55.4 °F - 30.0 °F 38% 29.57 in 10.0 mi WSW 25.3 mph 36.8 mph N/A   Clear
5:15 PM 54.5 °F - 30.2 °F 39% 29.59 in 10.0 mi SW 20.7 mph 32.2 mph N/A   Clear
5:35 PM 53.1 °F - 30.2 °F 42% 29.60 in 10.0 mi SW 15.0 mph 26.5 mph N/A   Clear
5:55 PM 52.0 °F - 29.8 °F 43% 29.61 in 10.0 mi SW 17.3 mph 31.1 mph N/A   Clear
6:15 PM 51.3 °F - 30.0 °F 44% 29.63 in 10.0 mi WSW 17.3 mph 27.6 mph N/A   Clear
6:35 PM 50.7 °F - 29.5 °F 44% 29.64 in 10.0 mi SW 13.8 mph 24.2 mph N/A   Clear
6:55 PM 50.0 °F - 29.5 °F 45% 29.65 in 10.0 mi WSW 15.0 mph 29.9 mph N/A   Clear
7:15 PM 49.5 °F - 29.5 °F 46% 29.67 in 10.0 mi West 16.1 mph 27.6 mph N/A   Scattered Clouds
7:35 PM 48.7 °F - 29.7 °F 48% 29.67 in 10.0 mi WSW 25.3 mph 39.1 mph N/A   Scattered Clouds
7:55 PM 48.0 °F - 28.9 °F 48% 29.69 in 10.0 mi West 19.6 mph 33.4 mph N/A   Mostly Cloudy
8:15 PM 46.4 °F 39.0 °F 28.2 °F 49% 29.71 in 10.0 mi WSW 19.6 mph 32.2 mph N/A   Scattered Clouds
8:35 PM 45.0 °F 38.5 °F 27.7 °F 51% 29.72 in 10.0 mi WSW 13.8 mph 32.2 mph N/A   Clear
8:55 PM 43.9 °F 37.9 °F 28.0 °F 54% 29.73 in 10.0 mi WSW 11.5 mph 23.0 mph N/A   Clear
9:15 PM 43.7 °F 34.7 °F 28.0 °F 54% 29.75 in 10.0 mi WSW 23.0 mph 29.9 mph N/A   Mostly Cloudy
9:35 PM 43.3 °F 33.8 °F 25.9 °F 50% 29.75 in 10.0 mi WSW 25.3 mph 38.0 mph N/A   Scattered Clouds
9:55 PM 42.8 °F 35.1 °F 25.2 °F 50% 29.77 in 10.0 mi WSW 16.1 mph 31.1 mph N/A   Mostly Cloudy
10:15 PM 42.3 °F 34.1 °F 25.3 °F 51% 29.79 in 10.0 mi WSW 17.3 mph 31.1 mph N/A   Overcast
10:35 PM 41.7 °F 33.4 °F 25.3 °F 52% 29.80 in 10.0 mi WSW 17.3 mph 32.2 mph N/A   Overcast
10:55 PM 41.0 °F 32.5 °F 23.9 °F 51% 29.82 in 10.0 mi West 17.3 mph 34.5 mph N/A   Overcast
11:15 PM 40.3 °F 31.6 °F 22.8 °F 50% 29.83 in 10.0 mi West 17.3 mph 29.9 mph N/A   Overcast
11:35 PM 39.9 °F 32.1 °F 22.8 °F 50% 29.84 in 10.0 mi WSW 13.8 mph 27.6 mph N/A   Mostly Cloudy
11:55 PM 39.4 °F 31.4 °F 23.0 °F 52% 29.85 in 10.0 mi West 13.8 mph 26.5 mph N/A   Scattered Clouds